EZS34AF LKPR-LSGG

Flight info

Callsign EZS34AF
Flight time 1h 13m
Altitude 36000
Route BALTU4B BALTU DCT DONAD DCT OKG L984 KULOK Z715 ANELA N869 TEDGO/N0434F350 N869 NATOR DCT LUTIX DCT BENOT BENOT2R
Aircraft A320/M-SDE3FGHIRWY/LB1

Departure

Time 2026-05-05 17:01
Airport Václav Havel Airport Prague (LKPR)

Arrival

Time 2026-05-05 18:15
Airport Geneva International Airport (LSGG)
Time Latitude Longitude Altitude Speed Heading
2026-05-05 16:10 50.10371 14.26748 1174 ft 0 kts 34°
2026-05-05 16:35 50.10370 14.26748 1174 ft 0 kts 34°
2026-05-05 16:39 50.10370 14.26747 1174 ft 0 kts 34°
2026-05-05 16:50 50.10366 14.26743 1174 ft 3 kts 34°
2026-05-05 16:50 50.10344 14.26720 1169 ft 4 kts 34°
2026-05-05 16:50 50.10325 14.26700 1170 ft 1 kts 34°
2026-05-05 16:51 50.10325 14.26699 1170 ft 2 kts 34°
2026-05-05 16:53 50.10329 14.26697 1170 ft 2 kts 354°
2026-05-05 16:53 50.10375 14.26606 1174 ft 17 kts 302°
2026-05-05 16:53 50.10439 14.26462 1171 ft 15 kts 306°
2026-05-05 16:53 50.10496 14.26333 1172 ft 14 kts 305°
2026-05-05 16:54 50.10533 14.26238 1170 ft 5 kts 289°
2026-05-05 16:54 50.10534 14.26231 1170 ft 0 kts 287°
2026-05-05 16:55 50.10535 14.26226 1170 ft 1 kts 285°
2026-05-05 16:55 50.10536 14.26219 1171 ft 1 kts 284°
2026-05-05 16:55 50.10536 14.26213 1172 ft 0 kts 283°
2026-05-05 16:56 50.10536 14.26214 1172 ft 0 kts 283°
2026-05-05 16:58 50.10538 14.26172 1174 ft 11 kts 268°
2026-05-05 16:58 50.10524 14.26045 1174 ft 8 kts 259°
2026-05-05 16:58 50.10516 14.25971 1171 ft 8 kts 270°
2026-05-05 16:58 50.10521 14.25939 1173 ft 0 kts 290°
2026-05-05 16:59 50.10529 14.25914 1174 ft 9 kts 300°
2026-05-05 16:59 50.10563 14.25835 1173 ft 7 kts 303°
2026-05-05 16:59 50.10599 14.25744 1173 ft 15 kts 300°
2026-05-05 17:00 50.10639 14.25588 1172 ft 13 kts 258°
2026-05-05 17:00 50.10596 14.25464 1169 ft 17 kts 256°
2026-05-05 17:00 50.10567 14.25230 1167 ft 25 kts 258°
2026-05-05 17:00 50.10511 14.25140 1168 ft 7 kts 145°
2026-05-05 17:01 50.10419 14.25327 1172 ft 56 kts 127°
2026-05-05 17:01 50.10013 14.26166 1193 ft 136 kts 127°
2026-05-05 17:01 50.09358 14.27499 1636 ft 161 kts 124°
2026-05-05 17:01 50.08662 14.28904 2406 ft 163 kts 123°
2026-05-05 17:02 50.07949 14.30370 2827 ft 178 kts 125°
2026-05-05 17:02 50.07156 14.32025 3137 ft 201 kts 125°
2026-05-05 17:02 50.06287 14.33836 3409 ft 225 kts 124°
2026-05-05 17:02 50.05296 14.35895 3820 ft 250 kts 126°
2026-05-05 17:03 50.04215 14.38129 4496 ft 263 kts 126°
2026-05-05 17:03 50.03111 14.40403 5443 ft 265 kts 126°
2026-05-05 17:03 50.01990 14.42712 6322 ft 270 kts 127°
2026-05-05 17:03 50.01010 14.44747 7076 ft 271 kts 125°
2026-05-05 17:04 50.00287 14.47480 7885 ft 280 kts 99°
2026-05-05 17:04 50.00459 14.50507 8678 ft 289 kts 71°
2026-05-05 17:04 50.01571 14.53137 9463 ft 298 kts 43°
2026-05-05 17:04 50.03237 14.55139 10065 ft 312 kts 37°
2026-05-05 17:05 50.05054 14.57214 10363 ft 336 kts 37°
2026-05-05 17:05 50.07008 14.59436 10629 ft 359 kts 37°
2026-05-05 17:05 50.09196 14.61494 11070 ft 374 kts 24°
2026-05-05 17:05 50.11687 14.62777 11720 ft 380 kts 11°
2026-05-05 17:06 50.14322 14.63122 12418 ft 383 kts 355°
2026-05-05 17:06 50.16934 14.62291 13105 ft 385 kts 338°
2026-05-05 17:06 50.19258 14.60253 13772 ft 385 kts 319°
2026-05-05 17:06 50.21049 14.57168 14389 ft 384 kts 300°
2026-05-05 17:07 50.22110 14.53380 15034 ft 382 kts 281°
2026-05-05 17:07 50.22359 14.49272 15659 ft 381 kts 264°
2026-05-05 17:07 50.21969 14.45188 16298 ft 382 kts 258°
2026-05-05 17:07 50.21509 14.41082 16935 ft 385 kts 258°
2026-05-05 17:08 50.21042 14.36950 17569 ft 388 kts 258°
2026-05-05 17:08 50.20572 14.32779 18174 ft 392 kts 258°
2026-05-05 17:08 50.20101 14.28579 18710 ft 395 kts 258°
2026-05-05 17:08 50.19626 14.24341 19247 ft 398 kts 258°
2026-05-05 17:09 50.19148 14.20078 19775 ft 400 kts 258°
2026-05-05 17:09 50.18665 14.15784 20284 ft 403 kts 258°
2026-05-05 17:09 50.18178 14.11455 20798 ft 406 kts 258°
2026-05-05 17:09 50.17853 14.08581 21122 ft 407 kts 258°
2026-05-05 17:10 50.17186 14.02741 21754 ft 411 kts 257°
2026-05-05 17:10 50.16680 13.98340 22216 ft 414 kts 257°
2026-05-05 17:10 50.16171 13.93911 22676 ft 416 kts 257°
2026-05-05 17:10 50.15661 13.89452 23110 ft 419 kts 257°
2026-05-05 17:11 50.15145 13.84969 23517 ft 421 kts 257°
2026-05-05 17:11 50.14624 13.80471 23897 ft 422 kts 257°
2026-05-05 17:11 50.14099 13.75963 24271 ft 424 kts 257°
2026-05-05 17:11 50.13567 13.71440 24648 ft 425 kts 257°
2026-05-05 17:12 50.13030 13.66902 25014 ft 426 kts 257°
2026-05-05 17:12 50.12498 13.62409 25369 ft 427 kts 257°
2026-05-05 17:12 50.11959 13.57850 25716 ft 429 kts 257°
2026-05-05 17:12 50.11414 13.53272 26056 ft 430 kts 257°
2026-05-05 17:13 50.10868 13.48688 26387 ft 431 kts 257°
2026-05-05 17:13 50.10319 13.44076 26701 ft 433 kts 257°
2026-05-05 17:13 50.09766 13.39461 26982 ft 434 kts 257°
2026-05-05 17:13 50.09207 13.34824 27229 ft 437 kts 257°
2026-05-05 17:14 50.08868 13.30063 27502 ft 441 kts 265°
2026-05-05 17:14 50.08747 13.25332 27768 ft 442 kts 265°
2026-05-05 17:14 50.08626 13.20443 28031 ft 444 kts 265°
2026-05-05 17:14 50.08510 13.15728 28276 ft 444 kts 265°
2026-05-05 17:15 50.08391 13.10919 28592 ft 444 kts 265°
2026-05-05 17:15 50.08266 13.06138 28924 ft 442 kts 265°
2026-05-05 17:15 50.08132 13.01321 29275 ft 441 kts 265°
2026-05-05 17:15 50.07999 12.96588 29631 ft 440 kts 265°
2026-05-05 17:16 50.07877 12.91830 29959 ft 439 kts 265°
2026-05-05 17:16 50.07765 12.87149 30255 ft 438 kts 265°
2026-05-05 17:16 50.07651 12.82390 30489 ft 439 kts 265°
2026-05-05 17:16 50.07535 12.77637 30751 ft 439 kts 265°
2026-05-05 17:17 50.07417 12.72892 31036 ft 438 kts 265°
2026-05-05 17:17 50.07296 12.68164 31327 ft 437 kts 264°
2026-05-05 17:17 50.07171 12.63446 31618 ft 436 kts 264°
2026-05-05 17:17 50.07044 12.58746 31910 ft 435 kts 264°
2026-05-05 17:18 50.06914 12.54039 32203 ft 434 kts 264°
2026-05-05 17:18 50.06778 12.49352 32503 ft 433 kts 264°
2026-05-05 17:18 50.06639 12.44674 32803 ft 432 kts 264°
2026-05-05 17:18 50.06509 12.40014 33108 ft 432 kts 265°
2026-05-05 17:19 50.06465 12.35333 33353 ft 434 kts 267°
2026-05-05 17:19 50.06512 12.30629 33617 ft 435 kts 269°
2026-05-05 17:19 50.06611 12.25917 33877 ft 435 kts 269°
2026-05-05 17:19 50.06726 12.21216 34123 ft 434 kts 269°
2026-05-05 17:20 50.06830 12.16522 34389 ft 433 kts 269°
2026-05-05 17:20 50.06914 12.11845 34647 ft 432 kts 268°
2026-05-05 17:20 50.06979 12.07174 34884 ft 431 kts 268°
2026-05-05 17:20 50.07025 12.02562 35116 ft 431 kts 268°
2026-05-05 17:21 50.07059 11.97852 35345 ft 430 kts 268°
2026-05-05 17:21 50.07087 11.93254 35572 ft 430 kts 267°
2026-05-05 17:21 50.07115 11.88589 35738 ft 431 kts 267°
2026-05-05 17:22 50.07175 11.79222 35785 ft 434 kts 267°
2026-05-05 17:22 50.07020 11.69857 35784 ft 430 kts 258°
2026-05-05 17:23 50.05130 11.61141 35778 ft 425 kts 239°
2026-05-05 17:23 50.01498 11.53957 35785 ft 423 kts 224°
2026-05-05 17:24 49.97345 11.47461 35779 ft 424 kts 224°
2026-05-05 17:24 49.93164 11.41018 35806 ft 423 kts 219°
2026-05-05 17:25 49.88458 11.35560 35800 ft 422 kts 215°
2026-05-05 17:25 49.84516 11.31102 35797 ft 422 kts 215°
2026-05-05 17:26 49.79779 11.25740 35815 ft 422 kts 215°
2026-05-05 17:26 49.74624 11.18868 35813 ft 423 kts 224°
2026-05-05 17:27 49.71206 11.13379 35809 ft 423 kts 224°
2026-05-05 17:27 49.67148 11.06879 35809 ft 423 kts 224°
2026-05-05 17:28 49.63053 11.00357 35813 ft 423 kts 224°
2026-05-05 17:28 49.58952 10.93823 35810 ft 423 kts 224°
2026-05-05 17:29 49.54847 10.87302 35811 ft 424 kts 224°
2026-05-05 17:29 49.50737 10.80803 35813 ft 424 kts 224°
2026-05-05 17:30 49.46614 10.74306 35855 ft 424 kts 224°
2026-05-05 17:30 49.42480 10.67817 35844 ft 425 kts 224°
2026-05-05 17:31 49.38360 10.61276 35845 ft 426 kts 224°
2026-05-05 17:31 49.34319 10.54705 35840 ft 426 kts 224°
2026-05-05 17:32 49.30178 10.48209 35842 ft 426 kts 223°
2026-05-05 17:32 49.25960 10.41834 35852 ft 426 kts 223°
2026-05-05 17:33 49.21741 10.35457 35871 ft 426 kts 223°
2026-05-05 17:33 49.17581 10.29014 35858 ft 426 kts 224°
2026-05-05 17:34 49.13494 10.22383 35854 ft 427 kts 229°
2026-05-05 17:34 49.09778 10.15282 35861 ft 428 kts 229°
2026-05-05 17:35 49.06072 10.08252 35844 ft 429 kts 229°
2026-05-05 17:35 49.02322 10.01186 35839 ft 429 kts 229°
2026-05-05 17:36 48.98561 9.94115 35842 ft 429 kts 229°
2026-05-05 17:36 48.94800 9.87047 35843 ft 430 kts 229°
2026-05-05 17:37 48.90985 9.80062 35844 ft 428 kts 223°
2026-05-05 17:37 48.86719 9.73761 35849 ft 428 kts 222°
2026-05-05 17:38 48.82447 9.67567 35848 ft 427 kts 222°
2026-05-05 17:38 48.78147 9.61342 35859 ft 428 kts 222°
2026-05-05 17:39 48.73846 9.55103 35843 ft 428 kts 222°
2026-05-05 17:39 48.69535 9.48863 35837 ft 429 kts 222°
2026-05-05 17:40 48.65192 9.42591 35837 ft 429 kts 222°
2026-05-05 17:40 48.60899 9.36411 35841 ft 429 kts 222°
2026-05-05 17:41 48.56569 9.30198 35846 ft 429 kts 222°
2026-05-05 17:41 48.52237 9.23996 35845 ft 429 kts 222°
2026-05-05 17:42 48.47899 9.17799 35850 ft 430 kts 222°
2026-05-05 17:42 48.43546 9.11605 35853 ft 430 kts 222°
2026-05-05 17:43 48.39200 9.05427 35872 ft 430 kts 222°
2026-05-05 17:43 48.34846 8.99237 35870 ft 431 kts 222°
2026-05-05 17:44 48.30481 8.93059 35869 ft 430 kts 221°
2026-05-05 17:44 48.26117 8.86925 35860 ft 429 kts 221°
2026-05-05 17:44 48.23947 8.83871 35320 ft 427 kts 221°
2026-05-05 17:45 48.21782 8.80825 34955 ft 427 kts 221°
2026-05-05 17:45 48.19606 8.77768 34812 ft 429 kts 221°
2026-05-05 17:45 48.17421 8.74709 34852 ft 431 kts 221°
2026-05-05 17:46 48.13037 8.68575 34850 ft 431 kts 221°
2026-05-05 17:46 48.08655 8.62458 34854 ft 429 kts 222°
2026-05-05 17:47 48.04298 8.56389 34856 ft 427 kts 222°
2026-05-05 17:47 47.99943 8.50334 34879 ft 427 kts 222°
2026-05-05 17:48 47.95580 8.44279 34864 ft 428 kts 222°
2026-05-05 17:48 47.91244 8.38267 34870 ft 428 kts 222°
2026-05-05 17:49 47.86903 8.32266 34869 ft 424 kts 222°
2026-05-05 17:49 47.82571 8.26309 34872 ft 424 kts 222°
2026-05-05 17:50 47.78235 8.20367 34871 ft 423 kts 222°
2026-05-05 17:50 47.73908 8.14429 34876 ft 423 kts 222°
2026-05-05 17:51 47.69581 8.08503 34877 ft 423 kts 222°
2026-05-05 17:51 47.65253 8.02603 34881 ft 422 kts 222°
2026-05-05 17:52 47.60919 7.96706 34885 ft 422 kts 222°
2026-05-05 17:52 47.56590 7.90834 34884 ft 422 kts 221°
2026-05-05 17:53 47.52281 7.85005 34880 ft 422 kts 222°
2026-05-05 17:53 47.47953 7.79148 34888 ft 421 kts 222°
2026-05-05 17:54 47.43615 7.73303 34887 ft 422 kts 222°
2026-05-05 17:54 47.39280 7.67472 34883 ft 421 kts 222°
2026-05-05 17:54 47.37111 7.64558 34653 ft 422 kts 222°
2026-05-05 17:55 47.34938 7.61642 34423 ft 421 kts 222°
2026-05-05 17:55 47.32766 7.58733 34041 ft 420 kts 222°
2026-05-05 17:55 47.30589 7.55824 33039 ft 422 kts 222°
2026-05-05 17:55 47.28415 7.52926 32108 ft 422 kts 222°
2026-05-05 17:56 47.26241 7.50026 31182 ft 422 kts 222°
2026-05-05 17:56 47.24063 7.47117 30200 ft 423 kts 222°
2026-05-05 17:56 47.21878 7.44199 29040 ft 426 kts 222°
2026-05-05 17:56 47.19678 7.41270 27950 ft 426 kts 222°
2026-05-05 17:57 47.17482 7.38348 26788 ft 428 kts 223°
2026-05-05 17:57 47.15453 7.35129 25621 ft 430 kts 230°
2026-05-05 17:57 47.13591 7.31680 24509 ft 431 kts 231°
2026-05-05 17:57 47.11752 7.28279 23518 ft 417 kts 231°
2026-05-05 17:58 47.09985 7.25014 22647 ft 399 kts 231°
2026-05-05 17:58 47.08293 7.21896 21929 ft 397 kts 231°
2026-05-05 17:58 47.06570 7.18731 21206 ft 394 kts 231°
2026-05-05 17:58 47.04859 7.15593 20535 ft 398 kts 231°
2026-05-05 17:59 47.03089 7.12351 19901 ft 405 kts 231°
2026-05-05 17:59 47.01349 7.09172 19240 ft 404 kts 231°
2026-05-05 17:59 46.99599 7.05978 18600 ft 400 kts 231°
2026-05-05 17:59 46.97862 7.02806 17922 ft 397 kts 231°
2026-05-05 18:00 46.96141 6.99663 17254 ft 393 kts 231°
2026-05-05 18:00 46.94423 6.96531 16639 ft 389 kts 231°
2026-05-05 18:00 46.92710 6.93535 16003 ft 386 kts 226°
2026-05-05 18:00 46.90702 6.90975 15394 ft 382 kts 216°
2026-05-05 18:01 46.88421 6.88998 14783 ft 380 kts 206°
2026-05-05 18:01 46.85989 6.87511 14173 ft 378 kts 203°
2026-05-05 18:01 46.83567 6.86069 13552 ft 374 kts 204°
2026-05-05 18:01 46.81168 6.84638 12921 ft 370 kts 204°
2026-05-05 18:02 46.78795 6.83215 12329 ft 366 kts 204°
2026-05-05 18:02 46.76452 6.81805 11737 ft 363 kts 204°
2026-05-05 18:02 46.74131 6.80407 11167 ft 359 kts 204°
2026-05-05 18:02 46.71857 6.79040 10905 ft 344 kts 203°
2026-05-05 18:03 46.69728 6.77763 10703 ft 317 kts 204°
2026-05-05 18:03 46.67768 6.76591 10466 ft 292 kts 205°
2026-05-05 18:03 46.66074 6.75261 10224 ft 271 kts 215°
2026-05-05 18:03 46.64662 6.73589 9976 ft 253 kts 224°
2026-05-05 18:04 46.63506 6.71742 9797 ft 235 kts 227°
2026-05-05 18:04 46.62448 6.70009 9674 ft 230 kts 227°
2026-05-05 18:04 46.61384 6.68281 9537 ft 229 kts 227°
2026-05-05 18:04 46.60322 6.66558 9408 ft 228 kts 227°
2026-05-05 18:05 46.59261 6.64841 9283 ft 228 kts 227°
2026-05-05 18:05 46.58202 6.63132 9151 ft 227 kts 227°
2026-05-05 18:05 46.57490 6.61980 9064 ft 226 kts 227°
2026-05-05 18:05 46.56096 6.59726 8890 ft 226 kts 227°
2026-05-05 18:06 46.55043 6.58021 8737 ft 227 kts 227°
2026-05-05 18:06 46.54685 6.57443 8601 ft 228 kts 227°
2026-05-05 18:06 46.52916 6.54580 7954 ft 228 kts 227°
2026-05-05 18:06 46.51874 6.52895 7866 ft 225 kts 227°
2026-05-05 18:07 46.50841 6.51188 7626 ft 223 kts 230°
2026-05-05 18:07 46.49838 6.49475 7500 ft 223 kts 227°
2026-05-05 18:07 46.48776 6.47834 7386 ft 223 kts 226°
2026-05-05 18:07 46.47696 6.46220 7287 ft 223 kts 225°
2026-05-05 18:08 46.46614 6.44613 7200 ft 222 kts 225°
2026-05-05 18:08 46.45556 6.43040 7074 ft 219 kts 225°
2026-05-05 18:08 46.44494 6.41462 6827 ft 219 kts 225°
2026-05-05 18:08 46.43427 6.39877 6550 ft 218 kts 225°
2026-05-05 18:09 46.42377 6.38317 6276 ft 214 kts 225°
2026-05-05 18:09 46.41345 6.36787 5988 ft 210 kts 225°
2026-05-05 18:09 46.40336 6.35290 5692 ft 206 kts 225°
2026-05-05 18:09 46.39343 6.33818 5403 ft 202 kts 225°
2026-05-05 18:10 46.38364 6.32369 5135 ft 200 kts 225°
2026-05-05 18:10 46.37725 6.31423 4977 ft 197 kts 225°
2026-05-05 18:10 46.36778 6.30020 4690 ft 193 kts 225°
2026-05-05 18:10 46.35854 6.28655 4444 ft 186 kts 225°
2026-05-05 18:11 46.34962 6.27336 4192 ft 180 kts 225°
2026-05-05 18:11 46.34102 6.26065 3943 ft 173 kts 225°
2026-05-05 18:11 46.33273 6.24840 3716 ft 167 kts 225°
2026-05-05 18:11 46.32474 6.23661 3489 ft 158 kts 225°
2026-05-05 18:12 46.31752 6.22595 3301 ft 141 kts 224°
2026-05-05 18:12 46.31087 6.21614 3120 ft 135 kts 223°
2026-05-05 18:12 46.30431 6.20647 2933 ft 135 kts 224°
2026-05-05 18:12 46.29782 6.19691 2745 ft 132 kts 223°
2026-05-05 18:13 46.29135 6.18737 2547 ft 134 kts 224°
2026-05-05 18:13 46.28480 6.17773 2362 ft 137 kts 225°
2026-05-05 18:13 46.27815 6.16794 2175 ft 136 kts 224°
2026-05-05 18:13 46.27156 6.15823 1991 ft 138 kts 225°
2026-05-05 18:14 46.26476 6.14822 1804 ft 139 kts 225°
2026-05-05 18:14 46.25801 6.13828 1612 ft 139 kts 223°
2026-05-05 18:14 46.25123 6.12830 1442 ft 139 kts 223°
2026-05-05 18:14 46.24471 6.11878 1375 ft 123 kts 224°
2026-05-05 18:15 46.23979 6.11150 1375 ft 77 kts 225°
2026-05-05 18:15 46.23764 6.10846 1380 ft 28 kts 217°
2026-05-05 18:15 46.23611 6.10735 1382 ft 13 kts 197°
2026-05-05 18:15 46.23529 6.10701 1387 ft 9 kts 195°
2026-05-05 18:16 46.23510 6.10694 1386 ft 0 kts 195°
2026-05-05 18:16 46.23485 6.10684 1388 ft 9 kts 195°
2026-05-05 18:16 46.23408 6.10643 1397 ft 12 kts 208°
2026-05-05 18:17 46.23344 6.10562 1396 ft 12 kts 225°
2026-05-05 18:17 46.23292 6.10485 1397 ft 10 kts 225°
2026-05-05 18:17 46.23237 6.10404 1396 ft 15 kts 225°
2026-05-05 18:17 46.23162 6.10295 1393 ft 16 kts 225°
2026-05-05 18:18 46.23088 6.10176 1397 ft 14 kts 224°
2026-05-05 18:18 46.23020 6.10210 1395 ft 13 kts 135°
2026-05-05 18:18 46.22966 6.10321 1399 ft 13 kts 97°
2026-05-05 18:18 46.22944 6.10385 1398 ft 7 kts 147°
2026-05-05 18:19 46.22925 6.10401 1398 ft 1 kts 150°
2026-05-05 18:19 46.22921 6.10404 1403 ft 1 kts 150°
2026-05-05 18:19 46.22919 6.10406 1402 ft 0 kts 150°